Regional Weather Roundup
Issued by NWS

Home | Current Version | Previous Version | Text Only | Print | Product List | Glossary Off
Versions: 1 2 3 4 5 6 7 8 9 10 11 12 13 14 15 16 17 18 19 20 21 22 23 24 25 26 27 28 29 30 31 32 33 34 35 36 37 38 39 40 41 42 43 44 45 46 47 48 49 50

000
ASUS45 KTFX 201804
RWRMT
MONTANA HOURLY WEATHER ROUNDUP
NATIONAL WEATHER SERVICE GREAT FALLS MT
1104 AM MST SAT DEC 20 2014

NOTE: "FAIR" INDICATES FEW OR NO CLOUDS BELOW 12000 FEET WITH NO
SIGNIFICANT WEATHER AND/OR OBSTRUCTIONS TO VISIBILITY.

* THESE STATIONS ARE NOT UNDER NWS QUALITY CONTROL. THEY DO NOT
   REPORT WEATHER SUCH AS PRECIPITATION OR FOG.

MTZ001>007-043-201900-
WEST OF THE DIVIDE
CITY           SKY/WX    TMP DP  RH WIND       PRES   REMARKS
KALISPELL      CLOUDY    32  30  92 CALM      29.88F
MISSOULA       FOG       28  28 100 CALM      29.94F
BUTTE          CLOUDY    23  19  85 CALM      29.92F
MULLAN PASS    LGT SNOW  28  25  89 VRB3      29.79F VSB 1/2
* ESSEX        N/A       30  29  96 N/A        N/A
* LINCOLN      N/A       21  18  88 NW1        N/A
* LOOKOUT PASS N/A       28  28 100 S4G9       N/A
* POLSON       N/A       31  30  96 N/A        N/A
* RONAN APT    CLOUDY    32  30  92 N/A        N/A
* SEELEY LAKE  N/A       24  21  88 N/A        N/A
* THOMP F APT  CLOUDY    26  25  96 SE1G7      N/A
$$

MTZ008-052>055-201900-
SOUTHWEST MONTANA
CITY           SKY/WX    TMP DP  RH WIND       PRES   REMARKS
BOZEMAN        CLOUDY    32  25  75 S3        29.94S
DILLON         CLOUDY    30  23  75 SW6       29.93F WCI  24
* W YELLOWSTON CLOUDY    30  26  85 SW4G12     N/A
* THREE FORKS  CLOUDY    32  32 100 N/A        N/A
* BOULDER HILL N/A       26  17  69 SW9        N/A   WCI  17
* MONIDA PASS  N/A       25  25 100 SE9        N/A   WCI  16
* RAYNOLDS PAS N/A       27  15  61 S9         N/A   WCI  18
* WHITEHALL    N/A       31  23  72 NE3        N/A
* WISE RIVER   N/A       22  18  85 N/A        N/A
$$

MTZ009>010-012-014-046-048-049-054-201900-
EAST SLOPES AND CENTRAL MONTANA
CITY           SKY/WX    TMP DP  RH WIND       PRES   REMARKS
CUT BANK       CLOUDY    36  21  54 W21       29.79F WCI  25
GREAT FALLS    CLOUDY    39  21  48 SW17G23   29.84S WCI  30
HELENA         CLOUDY    34  25  70 NW5       29.91F WCI  29
* DEARBORN     N/A       41  20  43 S8         N/A
* EAST GLACIER N/A       30  19  64 W21G31     N/A   WCI  17
* MONARCH      N/A       34  11  38 SW14G24    N/A   WCI  24
* PENDROY      N/A       30  17  58 NE1        N/A
* ROGERS PASS  N/A       29  19  66 NE4G16     N/A
* SWEET GRASS  N/A       32  20  61 S12G17     N/A   WCI  23
$$

MTZ011-013-016-021-035-040-045-047-050-051-201900-
NORTH CENTRAL MONTANA
CITY           SKY/WX    TMP DP  RH WIND       PRES   REMARKS
HAVRE          PTCLDY    36  25  64 SW18      29.83F WCI  26
LEWISTOWN      PTSUNNY   39  19  45 SW9       29.86F WCI  33
* N BAR RANCH  SUNNY     41   9  27 W13G18    29.86F
* CHESTER      N/A       26  19  75 S1         N/A
* DENTON       N/A       37  20  50 SW8        N/A   WCI  31
* JUDITH GAP   N/A       39  15  37 SW12G17    N/A   WCI  32
* LOMA         N/A       34  23  64 SW4        N/A
$$

MTZ017>020-022>027-061-062-201900-
NORTHEAST MONTANA
CITY           SKY/WX    TMP DP  RH WIND       PRES   REMARKS
GLASGOW        PTCLDY    37  28  70 W7        29.81F WCI  32
GLENDIVE       SUNNY     41  28  60 S5        29.87F
JORDAN         PTCLDY    43  27  53 W13       29.86S
SIDNEY         SUNNY     36  28  73 S7        29.85F WCI  30
WOLF POINT     PTCLDY    36  28  73 NW3       29.83F
* BEAVER HILL  N/A       39  28  65 SW14       N/A   WCI  31
* CIRCLE       N/A       39  30  70 SW10       N/A   WCI  32
* LINDSAY DVD  N/A       40  26  57 W14G23     N/A   WCI  32
* NAVAJO       N/A       34  30  85 SW14       N/A   WCI  24
* SACO         N/A       39  29  67 SW15       N/A   WCI  31
$$

MTZ028>042-056>058-201900-
SOUTHCENTRAL AND SOUTHEAST MONTANA
CITY           SKY/WX    TMP DP  RH WIND       PRES   REMARKS
BAKER          SUNNY     43  28  56 W13       29.88F
BILLINGS       PTSUNNY   34  21  59 SW14      29.92S WCI  24
LIVINGSTON     PTSUNNY   43  21  42 W16       29.89R
MILES CITY     SUNNY     43  28  56 SW9       29.89F
* LAUREL APT   PTSUNNY   34  18  52 N/A        N/A
* ROUNDUP APT  PTSUNNY   43  18  37 SW14G21    N/A
* ALZADA       N/A       37  26  64 W3         N/A
* LAME DEER    N/A       38  24  57 W9         N/A   WCI  32
* REED POINT   N/A       34  27  76 E1         N/A
* ROSCOE HILL  N/A       39  11  31 N4         N/A
$$

REGIONAL REPORTS...DAKOTAS
CITY           SKY/WX    TMP DP  RH WIND       PRES   REMARKS
WILLISTON      SUNNY     28  27  96 S3        29.83F
DICKINSON      PTCLDY    43  28  56 W14       29.82F
BEACH          SUNNY     41  32  70 W17       29.86F
CROSBY         PTSUNNY   28  28 100 SW9       29.80F WCI  19
WATFORD CITY   PTCLDY    36  28  73 SW13      29.81F WCI  27
BISMARCK       CLOUDY    19  19 100 CALM      29.90F
GRAND FORKS    FOG       27  27 100 SW9       29.99F VSB 1    WCI  18
FARGO          FOG       32  28  85 S16       30.01F WCI  21
BUFFALO SD     PTCLDY    46  28  50 W14       29.82F
RAPID CITY     PTSUNNY   46  27  48 N3        29.92S
$$

REGIONAL REPORTS...WYOMING/IDAHO/WASHINGTON
CITY           SKY/WX    TMP DP  RH WIND       PRES   REMARKS
GILLETTE       CLOUDY    39  27  62 SW9       29.94F WCI  33
SHERIDAN       PTCLDY    36  25  64 S5        29.92F WCI  32
CODY           CLOUDY    36  21  54 SE10      29.92S WCI  29
YELLOWSTONE LA PTCLDY    27  21  78 N/A       29.99S
SALMON         CLOUDY    28  27  96 N3        29.99S
MULLAN PASS    LGT SNOW  28  25  89 VRB3      29.79S VSB 1/2
SAND POINT     N/A       36  36 100 N5        29.86F WCI  32
SPOKANE        LGT RAIN  37  36  96 SE9       29.82F WCI  30

$$




USA.gov is the U.S. government's official web portal to all federal, state and local government web resources and services.